Mojave, CA

2:42 AM PST on December 08, 2019 (GMT -0800)
Mojave

Weather History for KMHV - May, 2019

Change the Weather History Date:

Friday, May 10, 2019

  Actual Average Record
Temperature  
Mean Temperature 54 °F -  
Max Temperature 59 °F 76 °F 91 °F (2001)
Min Temperature 50 °F 51 °F 37 °F (1985)
Degree Days  
Heating Degree Days 10    
Growing Degree Days 4 (Base 50)    
Moisture  
Dew Point 51 °F    
Average Humidity 88    
Maximum Humidity 100    
Minimum Humidity 72    
Precipitation  
Precipitation 0.68 in - - ()
Sea Level Pressure  
Sea Level Pressure 29.86 in    
Wind  
Wind Speed 9 mph (NE)    
Max Wind Speed 22 mph    
Max Gust Speed 30 mph    
Visibility 10 miles    
Events Thunderstorm    
Averages and records for this station are not official NWS values.
T = Trace of Precipitation, MM = Missing Value Source: NWS Daily Summary

Daily Weather History Graph

Daily Weather History Graph

Search for Another Location

Airport or City:

Astronomy

May. 10, 2019 Rise Set
Actual Time 5:53 AM PDT 7:45 PM PDT
Civil Twilight 5:25 AM PDT 8:13 PM PDT
Nautical Twilight 4:51 AM PDT 8:46 PM PDT
Astronomical Twilight 4:16 AM PDT 9:22 PM PDT
Moon 11:00 AM PDT (5/10) 12:40 AM PDT (5/10)
Length of Visible Light 14h 47m
Length of Day
13h 52m
Waxing Crescent, 36% of the Moon is Illuminated
May 10
Waxing Crescent
May 11
First Quarter
May 18
Full
May 26
Last Quarter
Jun 3
New

Hourly Weather History & Observations

Time (PDT) Temp. Dew Point Humidity Pressure Visibility Wind Dir Wind Speed Gust Speed Precip Events Conditions
12:00 AM 59.0 °F 50.0 °F 72% 29.77 in 10.0 mi South 6.9 mph - N/A Thunderstorm Thunderstorm
12:20 AM 59.0 °F 51.8 °F 77% 29.79 in 10.0 mi Calm Calm - N/A Thunderstorm Thunderstorm
12:40 AM 55.4 °F 53.6 °F 94% 29.79 in 10.0 mi North 9.2 mph - N/A Thunderstorm Overcast
1:00 AM 55.4 °F 53.6 °F 94% 29.79 in 10.0 mi NE 6.9 mph - 0.27 in Thunderstorm Overcast
1:20 AM 53.6 °F 51.8 °F 94% 29.79 in 10.0 mi NE 10.4 mph 17.3 mph N/A Thunderstorm Overcast
1:40 AM 53.6 °F 51.8 °F 94% 29.79 in 10.0 mi NNE 12.7 mph - N/A   Overcast
2:00 AM 53.6 °F 51.8 °F 94% 29.81 in 10.0 mi North 17.3 mph 24.2 mph 0.20 in Thunderstorm Overcast
2:20 AM 51.8 °F 51.8 °F 100% 29.80 in 10.0 mi NE 10.4 mph 16.1 mph N/A   Overcast
2:40 AM 51.8 °F 51.8 °F 100% 29.80 in 10.0 mi NE 9.2 mph - N/A   Overcast
3:00 AM 51.8 °F 51.8 °F 100% 29.79 in 10.0 mi NE 13.8 mph - 0.13 in   Overcast
3:20 AM 51.8 °F 51.8 °F 100% 29.79 in 10.0 mi NNE 16.1 mph 21.9 mph N/A   Overcast
3:40 AM 50.0 °F 50.0 °F 100% 29.78 in 10.0 mi NE 21.9 mph 29.9 mph N/A   Mostly Cloudy
4:00 AM 50.0 °F 50.0 °F 100% 29.78 in 10.0 mi NE 19.6 mph 26.5 mph 0.05 in   Overcast
4:20 AM 50.0 °F 50.0 °F 100% 29.78 in 10.0 mi NE 17.3 mph - N/A   Overcast
4:40 AM 50.0 °F 50.0 °F 100% 29.78 in 10.0 mi NE 13.8 mph 19.6 mph N/A   Overcast
5:00 AM 50.0 °F 50.0 °F 100% 29.78 in 10.0 mi NE 12.7 mph - N/A   Overcast
5:20 AM 50.0 °F 50.0 °F 100% 29.78 in 10.0 mi ENE 9.2 mph - N/A   Overcast
5:40 AM 50.0 °F 50.0 °F 100% 29.78 in 10.0 mi ENE 6.9 mph 13.8 mph N/A   Overcast
6:00 AM 50.0 °F 50.0 °F 100% 29.80 in 10.0 mi SSE 6.9 mph - N/A   Overcast
6:20 AM 50.0 °F 50.0 °F 100% 29.81 in 10.0 mi NE 6.9 mph - N/A   Overcast
6:40 AM 50.0 °F 50.0 °F 100% 29.82 in 10.0 mi Calm Calm - N/A   Overcast
7:00 AM 50.0 °F 50.0 °F 100% 29.83 in 10.0 mi NW 3.5 mph - 0.02 in   Overcast
7:20 AM 50.0 °F 50.0 °F 100% 29.84 in 10.0 mi Calm Calm - N/A   Overcast
7:40 AM 50.0 °F 50.0 °F 100% 29.84 in 10.0 mi NNE 4.6 mph - N/A   Overcast
8:00 AM - - N/A% 29.84 in 10.0 mi NE 6.9 mph - 0.01 in   Overcast
8:20 AM 51.8 °F 51.8 °F 100% 29.85 in 10.0 mi NE 9.2 mph - N/A   Overcast
8:40 AM 51.8 °F 51.8 °F 100% 29.85 in 10.0 mi NNE 6.9 mph - N/A   Overcast
9:00 AM 51.8 °F 51.8 °F 100% 29.86 in 10.0 mi NNE 6.9 mph - N/A   Overcast
9:20 AM 51.8 °F 50.0 °F 94% 29.86 in 10.0 mi ENE 6.9 mph - N/A   Overcast
9:40 AM 51.8 °F 51.8 °F 100% 29.87 in 10.0 mi ENE 5.8 mph - N/A   Overcast
10:00 AM 51.8 °F 51.8 °F 100% 29.87 in 10.0 mi Variable 4.6 mph - N/A   Overcast
10:20 AM 53.6 °F 50.0 °F 88% 29.87 in 10.0 mi ENE 6.9 mph - N/A   Overcast
10:40 AM 53.6 °F 48.2 °F 82% 29.88 in 10.0 mi NE 8.1 mph - N/A   Overcast
11:00 AM 53.6 °F 48.2 °F 82% 29.88 in 10.0 mi ENE 6.9 mph 12.7 mph N/A   Overcast
11:20 AM 53.6 °F 50.0 °F 88% 29.88 in 10.0 mi East 8.1 mph - N/A   Overcast
11:40 AM 53.6 °F 48.2 °F 82% 29.89 in 10.0 mi East 6.9 mph - N/A   Overcast
12:00 PM 55.4 °F 48.2 °F 77% 29.89 in 10.0 mi ENE 6.9 mph - N/A   Overcast
12:20 PM 55.4 °F 48.2 °F 77% 29.89 in 10.0 mi NE 16.1 mph - N/A   Overcast
12:40 PM 53.6 °F 51.8 °F 94% 29.89 in 10.0 mi NNE 9.2 mph - N/A   Overcast
1:00 PM 53.6 °F 53.6 °F 100% 29.89 in 10.0 mi North 10.4 mph - N/A   Overcast
1:20 PM 53.6 °F 51.8 °F 94% 29.89 in 10.0 mi North 10.4 mph - N/A   Mostly Cloudy
1:40 PM 53.6 °F 51.8 °F 94% 29.89 in 10.0 mi NNE 9.2 mph - N/A   Overcast
2:00 PM 55.4 °F 51.8 °F 88% 29.89 in 10.0 mi NE 15.0 mph - N/A   Mostly Cloudy
2:20 PM 57.2 °F 50.0 °F 77% 29.89 in 10.0 mi NE 18.4 mph - N/A   Overcast
2:40 PM 57.2 °F 50.0 °F 77% 29.90 in 10.0 mi NE 15.0 mph 21.9 mph N/A   Mostly Cloudy
3:00 PM 57.2 °F 50.0 °F 77% 29.90 in 10.0 mi NE 11.5 mph 18.4 mph N/A   Overcast
3:20 PM 57.2 °F 51.8 °F 82% 29.90 in 10.0 mi ENE 12.7 mph - N/A   Overcast
3:40 PM 57.2 °F 51.8 °F 82% 29.90 in 10.0 mi ENE 12.7 mph - N/A   Overcast
4:00 PM 55.4 °F 51.8 °F 88% 29.90 in 10.0 mi NE 12.7 mph - N/A   Overcast
4:20 PM 55.4 °F 51.8 °F 88% 29.89 in 10.0 mi NNE 11.5 mph - N/A   Overcast
4:40 PM 57.2 °F 51.8 °F 82% 29.89 in 10.0 mi NNE 12.7 mph - N/A   Overcast
5:00 PM 57.2 °F 50.0 °F 77% 29.89 in 10.0 mi NNE 12.7 mph - N/A   Mostly Cloudy
5:20 PM 57.2 °F 50.0 °F 77% 29.89 in 10.0 mi NE 9.2 mph - N/A   Mostly Cloudy
5:40 PM 59.0 °F 50.0 °F 72% 29.89 in 10.0 mi NE 10.4 mph - N/A   Mostly Cloudy
6:00 PM 59.0 °F 50.0 °F 72% 29.88 in 10.0 mi NE 16.1 mph - N/A   Overcast
6:20 PM 59.0 °F 50.0 °F 72% 29.88 in 10.0 mi NE 15.0 mph 20.7 mph N/A   Overcast
6:40 PM 59.0 °F 50.0 °F 72% 29.89 in 10.0 mi NNE 11.5 mph - N/A   Overcast
7:00 PM 59.0 °F 50.0 °F 72% 29.89 in 10.0 mi NE 12.7 mph - N/A   Overcast
7:20 PM 59.0 °F 50.0 °F 72% 29.89 in 10.0 mi NNE 10.4 mph - N/A   Overcast
7:40 PM 59.0 °F 50.0 °F 72% 29.90 in 10.0 mi NNE 8.1 mph - N/A   Overcast
8:00 PM 59.0 °F 50.0 °F 72% 29.91 in 10.0 mi ENE 6.9 mph - N/A   Overcast
8:20 PM 59.0 °F 50.0 °F 72% 29.92 in 10.0 mi ENE 6.9 mph - N/A   Overcast
8:40 PM 57.2 °F 51.8 °F 82% 29.92 in 10.0 mi NE 4.6 mph - N/A   Overcast
9:00 PM 57.2 °F 53.6 °F 88% 29.93 in 10.0 mi Calm Calm - N/A   Overcast
9:20 PM 57.2 °F 53.6 °F 88% 29.93 in 10.0 mi Calm Calm - N/A   Overcast
9:40 PM 57.2 °F 51.8 °F 82% 29.94 in 10.0 mi Calm Calm - N/A   Overcast
10:00 PM 57.2 °F 51.8 °F 82% 29.94 in 10.0 mi Calm Calm - N/A   Mostly Cloudy
10:20 PM 57.2 °F 51.8 °F 82% 29.94 in 10.0 mi Calm Calm - N/A   Overcast
10:40 PM 57.2 °F 53.6 °F 88% 29.93 in 10.0 mi Calm Calm - N/A   Mostly Cloudy
11:00 PM 57.2 °F 53.6 °F 88% 29.93 in 10.0 mi SW 4.6 mph - N/A   Overcast
11:20 PM 57.2 °F 53.6 °F 88% 29.93 in 10.0 mi SW 4.6 mph - N/A   Overcast
11:40 PM 55.4 °F 53.6 °F 94% 29.94 in 10.0 mi Calm Calm - N/A   Overcast